Dati Storici

Data ora Umidita' aria (%) Temperatura aria (°C) Rad globale (W/m²) Gonioanemometro (°) Tacoanemometro (m/s) Pioggia (mm)
22-06-2020 03:30 73.8 % 20.448 200.15 -0.012 0 0
22-06-2020 03:20 73 % 20.394 1.367 -0.012 0 0
22-06-2020 03:10 72.5 % 20.488 211.479 0.336 0 0
22-06-2020 03:00 71.8 % 20.523 26.233 0.652 0 0
22-06-2020 02:50 71.4 % 20.677 244.413 0.532 0 0
22-06-2020 02:40 71 % 20.837 212.194 -0.008 0 0
22-06-2020 02:30 70 % 20.979 152.151 -0.012 0 0
22-06-2020 02:20 70.3 % 21.125 168.023 -0.012 0 0
22-06-2020 02:10 69.8 % 21.257 133.519 -0.01 0 0
22-06-2020 02:00 69.4 % 21.308 47.613 -0.009 0 0
22-06-2020 01:50 69.6 % 21.425 4.984 -0.012 0 0
22-06-2020 01:40 70.1 % 21.579 289.186 0.648 0 0
22-06-2020 01:30 72.1 % 21.728 144.818 -0.013 0 0
22-06-2020 01:20 72 % 21.761 197.779 -0.011 0 0
22-06-2020 01:10 71.6 % 21.677 185.228 -0.012 0 0
22-06-2020 01:00 71.8 % 21.828 340.175 -0.013 0 0
22-06-2020 00:50 71.6 % 22.007 94.078 -0.015 0 0
22-06-2020 00:40 71.1 % 22.173 208.988 -0.017 0 0
22-06-2020 00:30 70.1 % 22.429 337.924 -0.016 0 0
22-06-2020 00:20 70.1 % 22.679 70.442 -0.019 0 0

I dati sono presentati in modo automatico a scopo informativo. In seguito a verifica i dati possono subire modifiche o essere invalidati e non riportati negli archivi definitivi.